User: anonymous
Location: Unspecified
(0.0000°N, 0.0000°E)
Time: 21:34:56
(UTC+02:00)
Language:

Cosmos 1953 Rocket - Orbit

View from above orbital plane
View from above orbital plane
View from above satellite
View from above satellite

Ground track
Ground track

The orbit data is extracted from the following two-line orbital elements,

1 19211U 88050B   14202.85327796  .00000137  00000-0  14015-4 0  2899
2 19211 082.5281 114.7697 0022178 018.0375 048.4924 14.82420407409513
Epoch (UTC): 21 July 2014 20:28:43
Eccentricity: 0.0022178
inclination: 82.5281°
perigee height: 606 km
apogee height: 637 km
right ascension of ascending node: 114.7697°
argument of perigee: 18.0375°
revolutions per day: 14.82420407
mean anomaly at epoch: 48.4924°
orbit number at epoch: 40951

The dashed part of the orbit path shows where the satellite is in the earth's shadow,  

DLR